Weather History for EGLF - February, 2013

Change the Weather History Date:

Saturday, February 16, 2013

  Actual Average (EGLL) Record (EGLL)
Temperature  
Mean Temperature 42 °F -  
Max Temperature 50 °F 47 °F 53 °F (1998)
Min Temperature 30 °F 37 °F 30 °F (2008)
Degree Days  
Heating Degree Days 22    
Moisture  
Dew Point 37 °F    
Average Humidity 78    
Maximum Humidity 100    
Minimum Humidity 55    
Precipitation  
Precipitation 0.00 in - - ()
Sea Level Pressure  
Sea Level Pressure 30.22 in    
Wind  
Wind Speed 3 mph ()    
Max Wind Speed 8 mph    
Max Gust Speed -    
Visibility 8.1 miles    
Events      
Averages and records for this station are not official NWS values.
T = Trace of Precipitation, MM = Missing Value Source: Averaged Metar Reports

Daily Weather History Graph

Daily Weather History Graph

Search for Another Location

Airport or City:

Trip Planner

Search our weather history database for the weather conditions in past years. The results will help you decide how hot, cold, wet, or windy it might be!

Date:

Astronomy

Feb. 16, 2013 Rise Set
Actual Time 7:14 AM GMT 5:20 PM GMT
Civil Twilight 6:40 AM GMT 5:55 PM GMT
Nautical Twilight 6:01 AM GMT 6:33 PM GMT
Astronomical Twilight 5:22 AM GMT 7:12 PM GMT
Moon 9:29 AM GMT (2/16) No Moon Set
Length of Visible Light 11h 14m
Length of Day
10h 06m
Waxing Crescent, 37% of the Moon is Illuminated
Feb 16
Waxing Crescent
Feb 17
First Quarter
Feb 25
Full
Mar 4
Last Quarter
Mar 11
New

Hourly Weather History & Observations

Time (GMT) Temp. Windchill Dew Point Humidity Pressure Visibility Wind Dir Wind Speed Gust Speed Precip Events Conditions
2:50 AM 38 °F - 36 °F 88% 30.22 in 14 mi WSW 1.2 mph - -   Overcast
5:50 AM 36 °F - 35 °F 95% 30.22 in 11 mi SW 2.3 mph - -   Overcast
7:50 AM 35.6 °F - 35.6 °F 100% 30.21 in - SW 2.3 mph - N/A   Clear
8:20 AM 37.4 °F - 35.6 °F 93% 30.24 in - SW 2.3 mph - N/A   Clear
8:50 AM 40 °F - 38 °F 91% 30.24 in 11 mi ESE 2.3 mph - -   Overcast
8:50 AM 39.2 °F - 37.4 °F 93% 30.24 in - ESE 2.3 mph - N/A   Clear
9:20 AM 41.0 °F - 39.2 °F 93% 30.24 in - SE 2.3 mph - N/A   Clear
9:50 AM 42.8 °F 40.1 °F 39.2 °F 87% 30.24 in - SSE 4.6 mph - N/A   Clear
10:20 AM 44.6 °F 42.2 °F 39.2 °F 81% 30.24 in 6.2 mi South 4.6 mph - N/A   Mostly Cloudy
10:50 AM 46.4 °F 44.3 °F 39.2 °F 76% 30.24 in 6.2 mi SSE 4.6 mph - N/A   Mostly Cloudy
11:20 AM 46.4 °F 44.3 °F 39.2 °F 76% 30.24 in 6.2 mi SSE 4.6 mph - N/A   Partly Cloudy
11:50 AM 48 °F - 40 °F 64% 30.25 in 16 mi South 4.6 mph - -   Overcast
11:50 AM 48.2 °F - 39.2 °F 71% 30.24 in 6.2 mi SSE 4.6 mph - N/A   Partly Cloudy
12:20 PM 48.2 °F - 39.2 °F 71% 30.24 in 6.2 mi SSE 4.6 mph - N/A   Scattered Clouds
12:50 PM 48.2 °F - 39.2 °F 71% 30.21 in 6.2 mi Variable 3.5 mph - N/A   Scattered Clouds
1:20 PM 50.0 °F - 37.4 °F 62% 30.21 in 6.2 mi SSE 4.6 mph - N/A   Scattered Clouds
1:50 PM 46.4 °F 42.4 °F 37.4 °F 71% 30.21 in 6.2 mi SE 8.1 mph - N/A   Scattered Clouds
2:20 PM 48.2 °F - 39.2 °F 71% 30.21 in 6.2 mi South 8.1 mph - N/A   Scattered Clouds
2:50 PM 49 °F - 38 °F 55% 30.21 in 16 mi SSE 6.9 mph - -   Scattered Clouds
2:50 PM 50.0 °F - 39.2 °F 66% 30.21 in 6.2 mi SSE 6.9 mph - N/A   Scattered Clouds
3:20 PM 48.2 °F - 35.6 °F 62% 30.21 in 6.2 mi South 6.9 mph - N/A   Partly Cloudy
3:50 PM 46.4 °F 42.4 °F 32.0 °F 57% 30.21 in 6.2 mi South 8.1 mph - N/A   Partly Cloudy
4:20 PM 46.4 °F 42.9 °F 33.8 °F 62% 30.18 in 6.2 mi South 6.9 mph - N/A   Partly Cloudy
4:50 PM 44.6 °F 42.2 °F 35.6 °F 71% 30.18 in - SSE 4.6 mph - N/A   Clear
5:20 PM 44.6 °F 42.2 °F 35.6 °F 71% 30.18 in - SE 4.6 mph - N/A   Clear
5:50 PM 44 °F - 34 °F 59% 30.21 in 15 mi South 4.6 mph - -   Overcast
5:50 PM 42.8 °F 40.1 °F 35.6 °F 76% 30.21 in - SSE 4.6 mph - N/A   Scattered Clouds
6:20 PM 41.0 °F 38.0 °F 35.6 °F 81% 30.21 in 6.2 mi SSE 4.6 mph - N/A   Scattered Clouds
6:50 PM 39.2 °F - 35.6 °F 87% 30.21 in 6.2 mi Variable 2.3 mph - N/A   Mostly Cloudy
7:20 PM 37.4 °F - 33.8 °F 87% 30.21 in 6.2 mi Calm Calm - N/A   Mostly Cloudy
7:50 PM 37.4 °F - 35.6 °F 93% 30.21 in 6.2 mi SW 2.3 mph - N/A   Mostly Cloudy
8:50 PM 36 °F - 34 °F 91% 30.24 in 13 mi Calm Calm - -   Overcast
11:50 PM 30 °F - 29 °F 93% 30.22 in 0 mi Calm Calm - -